Terug naar catalogus

ATLAS 5 CENTAUR DEB

ActiefHEO
NORAD 44651·DEBRIS·🇺🇸 United States

Gelanceerd Oct 17, 2018 vanaf Cape Canaveral Space Force Station

Loading…

Volgende Passages (komende 24 uur)

TLE

VersSource: Space-Track

Epoch: Sep 10, 2026, 00:26 UTC

1 44651U 18079M   26253.01833122 -.00000205  00000-0  00000-0 0  9991
2 44651  13.3970  25.5811 4674339 335.8930   7.7878  1.83292575 49635

Volg ATLAS 5 CENTAUR DEB in realtime met AllMySat

Download on the App Store